Dewpoint
64 65 66 66 66 66 66 66 67 67 66 67 67 67 67 66 66 66 66 66 65 65
59 59 60 61 62 63 64 64 66 65 65 65 65 67 66 66 66 66 66 66 65 65
60 61 61 61 61 62 62 62 62 63 63 64 64 64 64 65 65 64 65 65 65 64
58 58 58 58 59 59 61 60 60 61 61 60 60 60 60 60 62 63 63 64 63 63
53 53 52 52 54 54 54 55 56 56 57 57 51 51 51 51 54 55 56 59 60 59
49 50 50 50 50 50 50 50 52 52 51 46 43 43 44 47 48 50 52 53 54 57
46 46 46 47 47 48 50 49 49 50 46 43 41 41 42 44 47 48 47 48 48 48
45 44 45 45 45 47 47 47 46 44 42 41 38 39 40 43 43 43 43 43 44 43
42 42 43 44 44 44 43 43 43 41 40 38 37 37 38 40 40 39 39 40 40 40
40 40 42 42 42 41 41 41 40 41 40 38 37 37 37 39 40 38 38 38 38 39
39 40 41 41 40 40 39 38 39 40 40 40 38 37 36 38 39 38 38 38 36 36
39 39 39 38 38 38 37 37 38 39 39 39 39 37 37 36 36 36 38 38 37 35
38 38 37 38 38 38 38 37 37 38 39 39 39 38 37 36 37 36 36 38 37 37
36 36 36 35 35 34 33 33 33 33 34 33 34 34 35 33 33 34 34 35 35 36
Wind_Speed
7 3 4 7 9 10 11 13 10 11 9 13 16 18 18 21 24 24 22 25 22 20
16 15 13 14 14 14 15 14 16 16 16 16 16 13 12 18 23 20 21 20 21 21
17 18 17 17 18 17 17 17 17 18 16 14 13 13 13 15 16 19 19 18 18 18
19 19 19 17 16 14 13 15 16 15 14 15 17 17 15 16 15 17 21 19 19 20
17 17 17 17 16 16 17 16 15 15 15 18 20 19 18 16 13 14 18 22 13 21
17 17 16 16 18 17 16 17 17 19 20 19 19 20 20 17 15 14 15 15 20 20
17 17 18 19 19 17 15 19 19 19 18 17 19 21 21 20 18 15 14 16 17 18
18 18 18 18 17 16 19 19 18 18 18 17 21 22 23 19 19 20 20 18 19 19
18 17 17 17 17 18 18 17 18 18 16 20 19 24 23 19 18 18 19 19 21 18
16 17 17 16 18 17 17 16 16 15 14 15 19 25 25 17 12 14 15 18 16 15
17 18 17 18 16 16 15 15 13 13 13 12 16 24 28 22 17 15 14 14 15 15
17 17 15 15 16 14 12 13 12 11 11 13 11 20 23 20 15 15 13 12 10 12
16 15 14 16 16 16 15 14 15 15 15 14 14 17 21 20 12 12 13 10 11 10
15 16 16 15 15 15 14 13 14 13 14 14 16 16 20 22 15 15 15 14 14 13
Wind_Direction
64 56 8 339 314 309 309 304 310 314 309 296 257 233 231 236 243 243 246 251 254 253
65 58 46 38 38 27 18 8 3 2 353 343 335 299 265 247 249 240 242 251 260 256
67 63 62 53 41 34 24 18 17 12 2 355 353 350 328 276 273 270 259 252 258 254
67 64 61 55 48 38 37 27 22 14 14 15 15 8 8 4 337 298 289 278 253 242
76 72 65 57 50 39 36 26 27 25 29 34 18 7 7 3 4 8 2 340 318 317
75 71 64 60 51 43 40 33 33 31 49 38 20 7 353 343 353 9 3 359 7 338
77 72 63 56 49 38 36 41 39 51 42 36 24 14 1 354 351 20 27 15 11 21
73 63 58 58 50 38 49 50 45 42 42 36 31 16 8 8 8 10 15 24 25 21
66 58 58 56 48 56 48 48 49 43 44 36 27 15 13 22 24 22 24 21 29 19
64 58 60 56 56 53 46 44 43 40 39 37 23 18 14 12 32 35 30 26 16 11
60 59 57 59 57 55 46 41 38 31 21 27 24 20 17 14 14 15 22 25 20 12
59 59 55 53 53 49 44 37 24 17 9 11 34 21 15 10 8 1 359 10 15 14
64 53 43 44 39 36 30 27 14 19 23 16 8 18 15 5 350 349 342 335 341 347
55 62 45 40 33 33 24 18 13 7 6 6 5 356 3 1 357 352 344 338 336 330